1514696400.98,47040,6.13,72464.0,-5.83,-6.81,-6.81,0,*59
1514696402.19,47041,6.13,72468.3,-5.83,-6.81,-6.81,0,*58
1514696403.37,47042,6.13,72460.5,-5.83,-6.69,-6.69,0,*5B
1514696404.57,47043,6.13,72460.5,-5.83,-6.77,-6.77,0,*5A
1514696405.76,47044,6.06,72470.3,-5.83,-6.69,-6.77,0,*52
1514696406.95,47045,6.13,72470.5,-5.83,-6.69,-6.77,0,*53
1514696408.15,47046,6.13,72470.0,-5.83,-6.77,-6.77,0,*5F
1514696409.37,47047,6.13,72474.3,-5.83,-6.89,-7.01,0,*5F
1514696410.59,47048,6.13,72480.0,-5.83,-6.89,-6.93,0,*5A
1514696411.81,47049,6.13,72484.0,-5.83,-6.89,-7.01,0,*51
1514696413.01,47050,6.13,72482.5,-5.83,-6.89,-7.15,0,*5C
1514696414.2,47051,6.13,72480.5,-5.83,-7.15,-7.19,0,*55
1514696415.4,47052,6.06,72470.3,-5.83,-7.15,-7.19,0,*56
1514696416.61,47053,6.13,72470.0,-5.79,-7.15,-7.11,0,*5A
1514696417.83,47054,6.06,72468.8,-5.85,-7.19,-7.19,0,*5A
1514696419.03,47055,6.06,72466.5,-5.83,-7.19,-7.15,0,*51
1514696420.26,47056,6.13,72470.0,-5.85,-7.19,-7.15,0,*54
1514696421.48,47057,6.13,72474.3,-5.83,-7.19,-7.01,0,*56
1514696422.72,47058,6.06,72468.5,-5.83,-7.05,-7.01,0,*54
1514696423.94,47059,6.13,72460.3,-5.83,-7.15,-7.01,0,*54
1514696425.16,47060,6.13,72460.0,-5.83,-7.05,-7.15,0,*5A
1514696426.38,47061,6.13,72456.8,-5.83,-7.05,-7.19,0,*57
1514696427.63,47062,6.13,72462.8,-5.83,-7.05,-7.27,0,*59
1514696428.88,47063,6.13,72468.5,-5.85,-7.19,-7.39,0,*5C
1514696430.11,47064,6.13,72460.0,-5.83,-7.19,-7.43,0,*50
1514696431.33,47065,6.13,72448.5,-5.79,-7.35,-7.49,0,*50
1514696432.57,47066,6.06,72422.8,-5.83,-7.39,-7.61,0,*50
1514696433.79,47067,6.06,72444.0,-5.83,-7.53,-7.73,0,*5E
1514696435.02,47068,6.13,72466.5,-5.83,-7.73,-7.83,0,*5C
1514696436.24,47069,6.13,72448.0,-5.83,-7.87,-7.61,0,*5A
1514696437.47,47070,6.13,72446.3,-5.83,-7.87,-7.43,0,*52
1514696438.69,47071,6.06,72426.3,-5.83,-7.87,-7.31,0,*56
1514696439.93,47072,6.06,72420.8,-5.83,-7.95,-7.27,0,*51
1514696441.16,47073,6.13,72416.3,-5.83,-7.73,-7.19,0,*55
1514696442.36,47074,6.13,72396.5,-5.79,-7.53,-7.11,0,*5D
1514696443.6,47075,6.13,72398.5,-5.83,-7.43,-7.05,0,*5D
1514696444.83,47076,6.13,72414.8,-5.83,-7.19,-6.93,0,*5F
1514696446.05,47077,6.13,72430.5,-5.79,-6.97,-6.89,0,*57
1514696447.27,47078,6.13,72440.5,-5.83,-6.93,-6.89,0,*59
1514696448.5,47079,6.13,72444.8,-5.83,-7.01,-6.81,0,*5A
1514696449.7,47080,6.13,72452.5,-5.83,-6.81,-6.81,0,*55
1514696450.91,47081,6.13,72454.8,-5.83,-6.77,-6.81,0,*5D
1514696452.1,47082,6.13,72460.5,-5.83,-6.89,-6.77,0,*56
1514696453.31,47083,6.13,72464.0,-5.83,-6.77,-6.81,0,*5F
1514696454.5,47084,6.13,72456.0,-5.83,-6.81,-6.89,0,*59
1514696455.72,47085,6.13,72452.0,-5.83,-6.89,-7.01,0,*51
1514696456.97,47086,6.06,72450.0,-5.83,-6.93,-7.01,0,*59
1514696458.21,47087,6.06,72458.8,-5.83,-7.01,-7.05,0,*56
1514696459.48,47088,6.13,72466.0,-5.85,-7.01,-7.01,0,*5B
1514696460.72,47089,6.06,72462.3,-5.83,-6.93,-7.01,0,*56
1514696461.96,47090,6.06,72464.8,-5.83,-7.01,-7.05,0,*50
1514696463.2,47091,6.13,72470.5,-5.83,-7.01,-7.05,0,*51
1514696464.45,47092,6.06,72472.3,-5.83,-6.93,-7.01,0,*5C
1514696465.69,47093,6.13,72468.8,-5.83,-6.93,-7.01,0,*5D
1514696466.93,47094,6.13,72470.0,-5.83,-7.01,-7.05,0,*54
1514696468.15,47095,6.13,72464.5,-5.83,-7.15,-7.31,0,*57
1514696469.4,47096,6.13,72466.3,-5.83,-7.27,-7.31,0,*55
1514696470.62,47097,6.13,72468.0,-5.83,-7.19,-7.31,0,*59
1514696471.84,47098,6.13,72476.3,-5.83,-7.19,-7.31,0,*56
1514696473.07,47099,6.13,72482.3,-5.83,-7.19,-7.27,0,*50
1514696474.29,47100,6.06,72482.5,-5.83,-7.27,-7.19,0,*51
1514696475.51,47101,6.13,72476.8,-5.83,-7.39,-7.19,0,*5F
1514696476.72,47102,6.13,72482.5,-5.83,-7.31,-7.15,0,*58
1514696477.94,47103,6.13,72474.0,-5.83,-7.31,-7.15,0,*59
1514696479.17,47104,6.13,72466.0,-5.79,-7.15,-7.01,0,*58
1514696480.39,47105,6.13,72468.5,-5.79,-7.15,-6.97,0,*57
1514696481.63,47106,6.13,72460.8,-5.83,-7.05,-7.01,0,*5E
1514696482.88,47107,6.13,72460.0,-5.83,-7.05,-7.01,0,*5F
1514696484.07,47108,6.13,72460.5,-5.83,-7.15,-7.15,0,*54
1514696485.3,47109,6.13,72466.5,-5.85,-7.19,-7.15,0,*5F
1514696486.54,47110,6.06,72456.5,-5.85,-7.05,-7.15,0,*5A
1514696487.76,47111,6.13,72458.5,-5.83,-7.15,-7.05,0,*5D
1514696489.0,47112,6.13,72462.3,-5.83,-7.05,-7.05,0,*5F
1514696490.2,47113,6.06,72456.8,-5.79,-7.11,-7.15,0,*5F
1514696491.41,47114,6.06,72456.3,-5.79,-7.11,-7.11,0,*5C
1514696492.63,47115,6.13,72468.5,-5.83,-7.05,-7.15,0,*59
1514696493.84,47116,6.13,72472.5,-5.79,-7.11,-7.11,0,*5E
1514696495.04,47117,6.13,72476.3,-5.79,-7.11,-7.23,0,*5E
1514696496.25,47118,6.13,72482.8,-5.79,-7.11,-7.23,0,*51
1514696497.49,47119,6.13,72482.3,-5.83,-7.27,-7.27,0,*54
1514696498.74,47120,6.13,72480.3,-5.83,-7.27,-7.39,0,*51
1514696499.98,47121,6.13,72486.0,-5.83,-7.27,-7.39,0,*50
1514696501.19,47122,6.13,72490.5,-5.83,-7.31,-7.53,0,*58
1514696502.4,47123,6.13,72490.8,-5.83,-7.39,-7.53,0,*51
1514696503.65,47124,6.13,72490.5,-5.83,-7.43,-7.43,0,*5A
1514696504.9,47125,6.13,72492.5,-5.83,-7.61,-7.39,0,*56
1514696506.12,47126,6.13,72496.3,-5.79,-7.53,-7.35,0,*5D
1514696507.38,47127,6.13,72498.0,-5.83,-7.57,-7.43,0,*5C
1514696508.63,47128,6.13,72496.8,-5.83,-7.61,-7.43,0,*56
1514696509.88,47129,6.13,72494.8,-5.83,-7.61,-7.43,0,*57
1514696511.12,47130,6.13,72488.0,-5.83,-7.69,-7.39,0,*5A
1514696512.37,47131,6.13,72484.3,-5.79,-7.69,-7.39,0,*5E
1514696513.59,47132,6.06,72480.5,-5.83,-7.83,-7.31,0,*54
1514696514.84,47133,6.13,72480.3,-5.79,-7.77,-7.27,0,*5C
1514696516.08,47134,6.13,72478.3,-5.79,-7.91,-7.35,0,*50
1514696517.33,47135,6.13,72476.0,-5.79,-7.91,-7.27,0,*52
1514696518.53,47136,6.13,72470.5,-5.79,-7.83,-7.15,0,*53
1514696519.75,47137,6.06,72466.3,-5.83,-7.69,-7.19,0,*5F
1514696520.97,47138,6.13,72462.8,-5.83,-7.69,-7.19,0,*50
1514696522.2,47139,6.13,72452.8,-5.83,-7.57,-7.15,0,*50
1514696523.39,47140,6.06,72454.3,-5.83,-7.53,-7.19,0,*56
1514696524.59,47141,6.06,72456.0,-5.83,-7.53,-7.19,0,*57
1514696525.81,47142,6.13,72466.8,-5.83,-7.43,-7.19,0,*55
1514696527.03,47143,6.13,72466.8,-5.83,-7.39,-7.19,0,*59
1514696528.24,47144,6.13,72476.0,-5.83,-7.31,-7.19,0,*56
1514696529.46,47145,6.13,72482.8,-5.83,-7.39,-7.19,0,*5F
1514696530.7,47146,6.13,72486.3,-5.83,-7.31,-7.27,0,*59
1514696531.92,47147,6.06,72486.8,-5.83,-7.31,-7.19,0,*55
1514696533.16,47148,6.06,72488.0,-5.83,-7.39,-7.31,0,*58
1514696534.4,47149,6.13,72488.8,-5.83,-7.39,-7.31,0,*59
1514696535.65,47150,6.13,72494.0,-5.83,-7.43,-7.39,0,*54
1514696536.87,47151,6.06,72506.3,-5.83,-7.53,-7.39,0,*54
1514696538.08,47152,6.13,72518.8,-5.83,-7.61,-7.53,0,*5A
1514696539.31,47153,6.13,72510.5,-5.83,-7.83,-7.61,0,*56
1514696540.55,47154,6.06,72500.5,-5.83,-7.99,-7.57,0,*5F
1514696541.8,47155,6.13,72492.5,-5.83,-7.99,-7.43,0,*5B
1514696543.05,47156,6.13,72490.3,-5.83,-7.95,-7.43,0,*54
1514696544.28,47157,6.13,72488.0,-5.83,-7.87,-7.43,0,*56
1514696545.52,47158,6.13,72484.3,-5.83,-7.69,-7.31,0,*5C
1514696546.79,47159,6.13,72454.8,-5.85,-7.57,-7.39,0,*5E
1514696548.04,47160,6.06,72408.0,-5.83,-7.57,-7.39,0,*52
1514696549.29,47161,6.13,72398.8,-5.83,-7.57,-7.39,0,*53
1514696550.54,47162,6.13,72394.5,-5.83,-7.57,-7.39,0,*50
1514696551.77,47163,6.13,72394.8,-5.83,-7.53,-7.43,0,*58
1514696553.02,47164,6.06,72356.0,-5.83,-7.43,-7.43,0,*5E
1514696554.27,47165,6.13,72382.8,-5.83,-7.57,-7.61,0,*5A
1514696555.52,47166,6.13,72388.5,-5.83,-7.57,-7.57,0,*5C
1514696556.77,47167,6.13,72404.5,-5.83,-7.43,-7.43,0,*5D
1514696558.02,47168,6.13,72406.5,-5.83,-7.43,-7.43,0,*52
1514696559.21,47169,6.06,72410.5,-5.83,-7.53,-7.53,0,*53
1514696560.43,47170,6.13,72424.8,-5.83,-7.61,-7.53,0,*5A
1514696561.68,47171,6.13,72420.5,-5.83,-7.61,-7.43,0,*5A
1514696562.93,47172,6.13,72424.8,-5.85,-7.53,-7.43,0,*5E
1514696564.17,47173,6.13,72414.5,-5.83,-7.61,-7.39,0,*55
1514696565.42,47174,6.13,72426.3,-5.83,-7.61,-7.27,0,*5D
1514696566.67,47175,6.13,72424.5,-5.83,-7.57,-7.27,0,*59
1514696567.87,47176,6.13,72422.0,-5.79,-7.49,-7.11,0,*55
1514696569.11,47177,6.06,72434.8,-5.83,-7.43,-7.05,0,*5E
1514696570.38,47178,6.13,72446.3,-5.85,-7.31,-7.01,0,*56
1514696571.6,47179,6.06,72422.5,-5.83,-7.19,-6.93,0,*51
1514696572.82,47180,6.06,72410.3,-5.83,-7.19,-7.01,0,*5D
1514696574.04,47181,6.13,72410.0,-5.83,-7.15,-7.05,0,*54
1514696575.26,47182,6.13,72432.0,-5.83,-7.27,-7.15,0,*57
1514696576.49,47183,6.06,72418.3,-5.83,-7.27,-7.05,0,*57
1514696577.72,47184,6.13,72412.3,-5.83,-7.39,-7.05,0,*5F
1514696578.94,47185,6.13,72414.5,-5.83,-7.19,-7.05,0,*5C
1514696580.16,47186,6.13,72396.8,-5.83,-7.15,-6.93,0,*5D
1514696581.41,47187,6.13,72420.0,-5.83,-7.05,-7.01,0,*57
1514696582.64,47188,6.13,72394.5,-5.83,-7.05,-7.05,0,*5C
1514696583.9,47189,6.13,72402.0,-5.85,-7.05,-7.05,0,*5B
1514696585.1,47190,6.13,72386.5,-5.83,-7.15,-7.15,0,*55
1514696586.3,47191,6.13,72372.5,-5.83,-7.15,-7.15,0,*54
1514696587.53,47192,6.13,72370.5,-5.79,-7.01,-7.23,0,*52
1514696588.73,47193,6.13,72370.5,-5.79,-7.11,-7.23,0,*52
1514696589.96,47194,6.13,72410.8,-5.79,-7.01,-7.15,0,*51
1514696591.18,47195,6.13,72430.8,-5.79,-7.01,-7.15,0,*50
1514696592.38,47196,6.13,72400.0,-5.83,-7.15,-7.15,0,*53
1514696593.61,47197,6.13,72388.3,-5.83,-7.19,-7.27,0,*5F
1514696594.84,47198,6.06,72394.3,-5.83,-7.39,-7.39,0,*5D
1514696596.06,47199,6.13,72420.0,-5.83,-7.27,-7.19,0,*51
1514696597.28,47200,6.13,72426.5,-5.83,-7.31,-7.19,0,*55
1514696598.49,47201,6.06,72412.3,-5.79,-7.15,-7.11,0,*5F
1514696599.69,47202,6.06,72394.5,-5.79,-7.15,-7.11,0,*5C
1514696600.91,47203,6.13,72408.8,-5.79,-7.15,-7.01,0,*5C
1514696602.12,47204,6.06,72430.5,-5.79,-7.11,-6.89,0,*5E
1514696603.34,47205,6.06,72434.3,-5.79,-7.01,-6.89,0,*5E
1514696604.56,47206,6.13,72390.3,-5.79,-7.01,-6.89,0,*5D
1514696605.81,47207,6.13,72368.8,-5.79,-7.01,-6.97,0,*53
1514696607.06,47208,6.13,72372.8,-5.79,-7.01,-6.97,0,*5C
1514696608.28,47209,6.13,72348.3,-5.79,-6.97,-6.89,0,*5C
1514696609.51,47210,6.06,72382.0,-5.79,-7.01,-6.89,0,*5A
1514696610.73,47211,6.13,72388.0,-5.79,-7.01,-6.89,0,*5B
1514696611.93,47212,6.06,72408.3,-5.79,-6.89,-6.85,0,*55
1514696613.12,47213,6.13,72416.8,-5.79,-6.85,-6.77,0,*55
1514696614.32,47214,6.06,72400.3,-5.79,-6.77,-6.77,0,*5F
1514696615.53,47215,6.13,72392.8,-5.79,-6.77,-6.77,0,*5E
1514696616.72,47216,6.06,72400.5,-5.79,-6.73,-6.77,0,*59
1514696617.92,47217,6.06,72414.3,-5.79,-6.73,-6.73,0,*5C
1514696619.12,47218,6.06,72408.3,-5.79,-6.73,-6.73,0,*53
1514696620.32,47219,6.13,72414.8,-5.79,-6.77,-6.73,0,*56
1514696621.54,47220,6.13,72426.3,-5.77,-6.77,-6.73,0,*52
1514696622.78,47221,6.13,72426.8,-5.79,-6.63,-6.63,0,*59
1514696624.0,47222,6.06,72422.5,-5.79,-6.63,-6.73,0,*5B
1514696625.2,47223,6.06,72438.0,-5.79,-6.73,-6.73,0,*5B
1514696626.44,47224,6.13,72452.8,-5.79,-6.63,-6.63,0,*5C
1514696627.66,47225,6.13,72460.3,-5.79,-6.63,-6.77,0,*58
1514696628.87,47226,6.06,72456.8,-5.79,-6.63,-6.73,0,*5F
1514696630.07,47227,6.13,72464.8,-5.79,-6.73,-6.85,0,*56
1514696631.29,47228,6.13,72464.0,-5.77,-6.77,-6.85,0,*53
1514696632.49,47229,6.13,72458.5,-5.79,-6.77,-6.89,0,*50
1514696633.74,47230,6.13,72456.3,-5.77,-6.85,-6.97,0,*54
1514696635.01,47231,6.13,72448.3,-5.77,-7.01,-6.97,0,*58
1514696636.26,47232,6.13,72452.8,-5.77,-7.11,-7.01,0,*54
1514696637.48,47233,6.13,72460.0,-5.79,-7.15,-7.01,0,*5F
1514696638.71,47234,6.13,72466.3,-5.77,-7.15,-7.11,0,*57
1514696639.94,47235,6.13,72466.8,-5.77,-7.23,-7.11,0,*53
1514696641.19,47236,6.06,72468.8,-5.77,-7.35,-7.11,0,*57
1514696642.44,47237,6.13,72478.0,-5.77,-7.27,-7.11,0,*55
1514696643.69,47238,6.13,72482.8,-5.77,-7.23,-7.01,0,*5F
1514696644.91,47239,6.13,72484.8,-5.75,-7.11,-7.05,0,*59
1514696646.15,47240,6.13,72492.8,-5.77,-7.23,-7.01,0,*50
1514696647.38,47241,6.06,72490.8,-5.77,-7.23,-7.11,0,*50
1514696648.63,47242,6.06,72474.5,-5.77,-7.35,-7.11,0,*54
1514696649.88,47243,6.13,72462.5,-5.77,-7.35,-7.11,0,*55
1514696651.15,47244,6.06,72446.5,-5.77,-7.27,-7.01,0,*50
1514696652.42,47245,6.06,72440.8,-5.77,-7.35,-6.97,0,*5C
1514696653.64,47246,6.06,72444.5,-5.77,-7.23,-6.89,0,*57
1514696654.87,47247,6.13,72452.5,-5.77,-7.15,-6.85,0,*5F
1514696656.09,47248,6.13,72462.5,-5.75,-7.05,-6.73,0,*5A
1514696657.34,47249,6.06,72458.3,-5.77,-7.01,-6.77,0,*59
1514696658.54,47250,6.13,72478.0,-5.75,-6.85,-6.81,0,*57
1514696659.78,47251,6.13,72484.5,-5.77,-6.89,-6.97,0,*5F
1514696661.06,47252,6.06,72482.0,-5.77,-6.97,-7.01,0,*5D
1514696662.3,47253,6.13,72482.8,-5.75,-7.05,-6.97,0,*5A
1514696663.55,47254,6.06,72480.8,-5.77,-7.11,-6.97,0,*5A
1514696664.78,47255,6.13,72468.8,-5.79,-7.11,-6.97,0,*55
1514696666.05,47256,6.06,72478.0,-5.77,-7.01,-6.97,0,*59
1514696667.3,47257,6.06,72470.5,-5.77,-7.01,-6.89,0,*57
1514696668.52,47258,6.06,72464.5,-5.79,-7.01,-6.89,0,*56
1514696669.74,47259,6.13,72474.8,-5.79,-7.01,-6.89,0,*57
1514696670.99,47260,6.13,72482.0,-5.77,-6.97,-6.77,0,*5C
1514696672.19,47261,6.06,72474.5,-5.75,-6.85,-6.73,0,*58
1514696673.39,47262,6.06,72470.5,-5.75,-6.81,-6.73,0,*5F
1514696674.59,47263,6.13,72458.0,-5.79,-6.73,-6.77,0,*5B
1514696675.79,47264,6.06,72442.5,-5.79,-6.77,-6.73,0,*5C
1514696677.01,47265,6.13,72436.3,-5.77,-6.77,-6.77,0,*57
1514696678.23,47266,6.06,72418.3,-5.77,-6.73,-6.73,0,*54
1514696679.43,47267,6.06,72418.5,-5.79,-6.73,-6.77,0,*5F
1514696680.62,47268,6.13,72424.3,-5.79,-6.73,-6.73,0,*54
1514696681.84,47269,6.13,72424.5,-5.77,-6.73,-6.73,0,*5B
1514696683.07,47270,6.13,72432.5,-5.77,-6.77,-6.73,0,*57
1514696684.3,47271,6.13,72444.3,-5.77,-6.77,-6.85,0,*5F
1514696685.51,47272,6.13,72478.8,-5.77,-6.73,-6.73,0,*51
1514696686.73,47273,6.13,72488.0,-5.77,-6.73,-6.73,0,*50
1514696687.95,47274,6.06,72488.5,-5.77,-6.73,-6.73,0,*57
1514696689.15,47275,6.13,72488.0,-5.75,-6.69,-6.59,0,*57
1514696690.34,47276,6.06,72490.0,-5.75,-6.69,-6.59,0,*54
1514696691.54,47277,6.06,72488.0,-5.75,-6.59,-6.69,0,*55
1514696692.73,47278,6.13,72498.5,-5.75,-6.59,-6.69,0,*5A
1514696693.95,47279,6.13,72494.5,-5.77,-6.73,-6.73,0,*5A
1514696695.17,47280,6.13,72496.8,-5.77,-6.73,-6.73,0,*5C
1514696696.44,47281,6.13,72474.0,-5.77,-6.63,-6.63,0,*5D
1514696697.68,47282,6.06,72472.3,-5.77,-6.63,-6.73,0,*5F
1514696698.95,47283,6.13,72478.8,-5.77,-6.63,-6.63,0,*5F
1514696700.15,47284,6.06,72466.0,-5.75,-6.59,-6.59,0,*5A
1514696701.35,47285,6.06,72470.8,-5.75,-6.59,-6.59,0,*5B
1514696702.55,47286,6.06,72480.5,-5.75,-6.59,-6.59,0,*58
1514696703.75,47287,6.13,72478.5,-5.75,-6.55,-6.59,0,*55
1514696704.95,47288,6.13,72492.8,-5.75,-6.55,-6.59,0,*5A
1514696706.15,47289,6.13,72488.0,-5.75,-6.55,-6.59,0,*5B
1514696707.35,47290,6.06,72476.0,-5.75,-6.55,-6.59,0,*53
1514696708.54,47291,6.06,72474.3,-5.75,-6.69,-6.69,0,*5E
1514696709.74,47292,6.06,72474.8,-5.75,-6.59,-6.69,0,*5E
1514696710.93,47293,6.13,72462.5,-5.75,-6.59,-6.69,0,*5F
1514696712.14,47294,6.06,72470.0,-5.75,-6.59,-6.59,0,*5B
1514696713.34,47295,6.13,72474.3,-5.75,-6.59,-6.59,0,*5A
1514696714.53,47296,6.06,72470.8,-5.75,-6.73,-6.69,0,*52
1514696715.73,47297,6.06,72466.0,-5.75,-6.73,-6.73,0,*58
1514696716.93,47298,6.13,72472.0,-5.75,-6.81,-6.81,0,*57
1514696718.14,47299,6.06,72488.3,-5.75,-6.73,-6.81,0,*5B
1514696719.34,47300,6.06,72460.5,-5.75,-6.81,-6.81,0,*57
1514696720.54,47301,6.13,72446.5,-5.75,-6.73,-6.85,0,*5F
1514696721.74,47302,6.13,72436.8,-5.75,-6.73,-6.81,0,*58
1514696722.96,47303,6.13,72438.0,-5.73,-6.69,-6.73,0,*59
1514696724.15,47304,6.13,72442.5,-5.75,-6.69,-6.73,0,*58
1514696725.36,47305,6.13,72452.0,-5.75,-6.81,-6.81,0,*52
1514696726.56,47306,6.06,72468.5,-5.75,-6.69,-6.81,0,*57
1514696727.76,47307,6.13,72484.5,-5.75,-6.73,-6.81,0,*5D
1514696728.99,47308,6.13,72474.3,-5.75,-6.81,-6.93,0,*5C
1514696730.26,47309,6.13,72490.0,-5.73,-6.93,-6.93,0,*58
1514696731.53,47310,6.13,72508.5,-5.73,-6.97,-7.05,0,*5A
1514696732.8,47311,6.13,72494.3,-5.73,-6.97,-6.97,0,*51
1514696734.06,47312,6.13,72468.8,-5.73,-7.05,-7.05,0,*52
1514696735.29,47313,6.13,72466.0,-5.75,-7.11,-6.97,0,*5A
1514696736.54,47314,6.06,72468.0,-5.75,-7.05,-6.93,0,*5C
1514696737.76,47315,6.13,72472.0,-5.75,-6.93,-6.85,0,*54
1514696738.99,47316,6.13,72468.5,-5.75,-6.97,-6.85,0,*53
1514696740.21,47317,6.06,72464.0,-5.75,-6.97,-6.85,0,*52
1514696741.44,47318,6.13,72454.3,-5.75,-7.05,-6.81,0,*53
1514696742.67,47319,6.06,72438.0,-5.75,-6.93,-6.73,0,*51
1514696743.88,47320,6.13,72430.3,-5.73,-6.73,-6.69,0,*58
1514696745.08,47321,6.06,72422.3,-5.75,-6.59,-6.59,0,*54
1514696746.28,47322,6.13,72414.3,-5.75,-6.59,-6.59,0,*57
1514696747.5,47323,6.06,72402.5,-5.73,-6.59,-6.69,0,*53
1514696748.72,47324,6.13,72400.8,-5.73,-6.59,-6.73,0,*5F
1514696749.94,47325,6.13,72396.3,-5.75,-6.69,-6.93,0,*55
1514696751.18,47326,6.13,72426.5,-5.73,-6.69,-7.05,0,*5E
1514696752.4,47327,6.13,72430.0,-5.75,-6.73,-7.31,0,*55
1514696753.68,47328,6.13,72424.5,-5.73,-6.97,-7.43,0,*53
1514696754.91,47329,6.06,72436.5,-5.75,-7.11,-7.35,0,*5A
1514696756.15,47330,6.06,72452.5,-5.75,-7.31,-7.35,0,*50
1514696757.42,47331,6.06,72480.3,-5.73,-7.35,-7.35,0,*53
1514696758.65,47332,6.13,72482.0,-5.75,-7.35,-7.19,0,*58
1514696759.87,47333,6.13,72472.3,-5.71,-7.27,-7.15,0,*52
1514696761.1,47334,6.06,72486.0,-5.75,-7.31,-7.23,0,*53
1514696762.35,47335,6.13,72480.0,-5.71,-7.27,-7.27,0,*55
1514696763.61,47336,6.06,72484.0,-5.73,-7.31,-7.31,0,*54
1514696764.86,47337,6.06,72478.0,-5.71,-7.39,-7.31,0,*5F
1514696766.11,47338,6.06,72476.8,-5.73,-7.43,-7.23,0,*5C
1514696767.36,47339,6.13,72484.5,-5.73,-7.43,-7.19,0,*54
1514696768.61,47340,6.13,72484.5,-5.73,-7.35,-7.11,0,*53
1514696769.87,47341,6.06,72478.5,-5.73,-7.35,-7.05,0,*57
1514696771.14,47342,6.06,72482.5,-5.73,-7.35,-6.97,0,*5E
1514696772.39,47343,6.06,72478.5,-5.71,-7.31,-6.93,0,*5D
1514696773.6,47344,6.13,72478.5,-5.71,-7.19,-6.81,0,*53
1514696774.83,47345,6.06,72444.5,-5.69,-7.11,-6.73,0,*5E
1514696776.03,47346,6.06,72438.5,-5.71,-6.89,-6.77,0,*50
1514696777.23,47347,6.06,72428.5,-5.71,-6.81,-6.69,0,*56
1514696778.43,47348,6.06,72426.8,-5.71,-6.81,-6.69,0,*59
1514696779.63,47349,6.06,72438.8,-5.71,-6.81,-6.69,0,*58
1514696780.85,47350,6.13,72462.8,-5.71,-6.69,-6.63,0,*5C
1514696782.07,47351,6.06,72464.0,-5.71,-6.69,-6.63,0,*5D
1514696783.29,47352,6.13,72472.5,-5.71,-6.63,-6.55,0,*51
1514696784.51,47353,6.13,72482.3,-5.71,-6.63,-6.77,0,*50
1514696785.73,47354,6.06,72482.5,-5.71,-6.63,-6.69,0,*58
1514696786.93,47355,6.06,72482.0,-5.71,-6.55,-6.69,0,*5C
1514696788.17,47356,6.06,72478.0,-5.71,-6.63,-6.63,0,*50
1514696789.4,47357,6.13,72478.3,-5.69,-6.59,-6.59,0,*58
1514696790.6,47358,6.13,72476.5,-5.71,-6.59,-6.73,0,*56
1514696791.79,47359,6.06,72486.8,-5.71,-6.69,-6.69,0,*5F
1514696793.01,47360,6.06,72486.8,-5.69,-6.73,-6.77,0,*58
1514696794.23,47361,6.06,72490.3,-5.69,-6.85,-6.85,0,*5D
1514696795.46,47362,6.06,72494.5,-5.71,-7.01,-6.89,0,*56
1514696796.68,47363,6.06,72490.8,-5.71,-6.93,-6.89,0,*5D
1514696797.91,47364,6.13,72492.8,-5.69,-6.85,-6.85,0,*58
1514696799.11,47365,6.06,72480.5,-5.71,-6.81,-6.77,0,*59
1514696800.31,47366,6.13,72492.0,-5.71,-6.81,-6.89,0,*5B
1514696801.56,47367,6.06,72470.8,-5.69,-6.85,-7.01,0,*56
1514696802.81,47368,6.13,72460.0,-5.69,-7.01,-7.11,0,*55
1514696804.06,47369,6.06,72456.3,-5.71,-7.05,-7.27,0,*5C
1514696805.33,47370,6.06,72426.5,-5.69,-7.27,-7.35,0,*5E
1514696806.6,47371,6.06,72420.3,-5.69,-7.43,-7.27,0,*5E
1514696807.85,47372,6.06,72414.8,-5.71,-7.43,-7.31,0,*53
1514696809.11,47373,6.13,72420.3,-5.71,-7.57,-7.27,0,*50
1514696810.33,47374,6.13,72430.0,-5.71,-7.49,-7.27,0,*58
1514696811.56,47375,6.13,72416.5,-5.71,-7.31,-7.19,0,*5B
1514696812.78,47376,6.06,72404.5,-5.71,-7.23,-7.01,0,*52
1514696814.03,47377,6.06,72402.3,-5.69,-7.15,-7.01,0,*5F
1514696815.26,47378,6.13,72404.8,-5.71,-7.15,-7.01,0,*59
1514696816.5,47379,6.13,72408.0,-5.71,-7.05,-7.01,0,*59
1514696817.76,47380,6.06,72428.0,-5.71,-6.93,-7.01,0,*51
1514696819.03,47381,6.13,72430.0,-5.73,-6.97,-6.93,0,*5C
1514696820.25,47382,6.06,72436.5,-5.73,-6.85,-6.85,0,*5B
1514696821.48,47383,6.06,72430.8,-5.75,-6.93,-6.85,0,*5B
1514696822.71,47384,6.13,72438.5,-5.73,-6.81,-6.81,0,*5D
1514696823.92,47385,6.06,72440.0,-5.73,-6.73,-6.73,0,*5C
1514696825.14,47386,6.13,72474.5,-5.73,-6.69,-6.69,0,*5F
1514696826.35,47387,6.13,72480.5,-5.73,-6.69,-6.69,0,*5E
1514696827.57,47388,6.13,72482.0,-5.73,-6.69,-6.59,0,*52
1514696828.79,47389,6.13,72476.3,-5.73,-6.59,-6.69,0,*53
1514696830.01,47390,6.13,72472.5,-5.73,-6.59,-6.59,0,*58
1514696831.23,47391,6.13,72488.3,-5.73,-6.59,-6.73,0,*51
1514696832.48,47392,6.06,72484.8,-5.71,-6.63,-6.63,0,*58
1514696833.7,47393,6.13,72490.3,-5.71,-6.63,-6.69,0,*53
1514696834.92,47394,6.13,72494.3,-5.73,-6.73,-6.73,0,*5C
1514696836.15,47395,6.13,72488.0,-5.73,-6.81,-6.81,0,*5D
1514696837.34,47396,6.06,72480.0,-5.71,-6.77,-6.69,0,*53
1514696838.54,47397,6.06,72466.8,-5.71,-6.69,-6.77,0,*52
1514696839.74,47398,6.13,72456.3,-5.71,-6.77,-6.69,0,*5D
1514696840.94,47399,6.13,72454.5,-5.71,-6.77,-6.69,0,*5C
1514696842.14,47400,6.13,72452.8,-5.71,-6.77,-6.69,0,*5B
1514696843.33,47401,6.13,72454.3,-5.71,-6.89,-6.69,0,*5B
1514696844.54,47402,6.13,72442.3,-5.71,-6.89,-6.81,0,*5E
1514696845.75,47403,6.06,72438.3,-5.71,-6.77,-6.81,0,*5E
1514696846.94,47404,6.13,72438.5,-5.71,-6.69,-6.69,0,*50
1514696848.16,47405,6.06,72440.3,-5.71,-6.63,-6.69,0,*5B
1514696849.35,47406,6.06,72442.0,-5.71,-6.69,-6.69,0,*52
1514696850.55,47407,6.06,72456.0,-5.71,-6.77,-6.77,0,*53
1514696851.75,47408,6.06,72456.0,-5.71,-6.89,-6.89,0,*5C
1514696853.0,47409,6.13,72430.5,-5.69,-6.97,-6.89,0,*5B
1514696854.26,47410,6.13,72410.3,-5.71,-6.93,-7.01,0,*5F
1514696855.51,47411,6.06,72412.8,-5.71,-6.93,-7.01,0,*5E
1514696856.76,47412,6.13,72414.5,-5.71,-6.93,-6.93,0,*57
1514696858.01,47413,6.13,72440.5,-5.73,-6.85,-6.97,0,*57
1514696859.25,47414,6.13,72446.3,-5.73,-6.81,-6.93,0,*50
1514696860.48,47415,6.06,72434.3,-5.71,-6.89,-6.93,0,*5B
1514696861.72,47416,6.13,72434.5,-5.69,-6.85,-7.01,0,*57
1514696862.97,47417,6.06,72440.0,-5.71,-6.93,-7.05,0,*5C
1514696864.22,47418,6.13,72446.3,-5.69,-6.97,-7.11,0,*5B
1514696865.48,47419,6.06,72442.8,-5.71,-7.01,-7.27,0,*58
1514696866.73,47420,6.13,72446.5,-5.71,-7.01,-7.27,0,*52
1514696867.98,47421,6.06,72460.3,-5.71,-7.05,-7.27,0,*57
1514696869.23,47422,6.13,72480.0,-5.69,-7.15,-7.27,0,*5C
1514696870.48,47423,6.13,72482.8,-5.69,-7.23,-7.39,0,*57
1514696871.72,47424,6.06,72478.5,-5.71,-7.39,-7.39,0,*52
1514696872.99,47425,6.06,72478.3,-5.69,-7.27,-7.27,0,*5A
1514696874.24,47426,6.06,72478.3,-5.71,-7.31,-7.39,0,*58
1514696875.51,47427,6.13,72482.3,-5.69,-7.27,-7.27,0,*58
1514696876.75,47428,6.06,72478.8,-5.71,-7.39,-7.39,0,*5E
1514696878.0,47429,6.06,72480.8,-5.71,-7.43,-7.31,0,*5A
1514696879.26,47430,6.13,72486.5,-5.71,-7.43,-7.31,0,*52
1514696880.5,47431,6.06,72484.5,-5.69,-7.53,-7.27,0,*5C
1514696881.78,47432,6.13,72488.8,-5.69,-7.65,-7.27,0,*5A
1514696883.03,47433,6.13,72482.0,-5.71,-7.73,-7.27,0,*55
1514696884.26,47434,6.13,72468.5,-5.71,-7.73,-7.19,0,*5F
1514696885.54,47435,6.06,72460.3,-5.69,-7.57,-7.01,0,*58
1514696886.76,47436,6.13,72474.0,-5.71,-7.49,-7.01,0,*5D
1514696888.02,47437,6.13,72474.8,-5.71,-7.57,-6.93,0,*59
1514696889.26,47438,6.06,72474.5,-5.71,-7.39,-6.93,0,*5E
1514696890.48,47439,6.13,72478.0,-5.71,-7.31,-6.89,0,*5C
1514696891.69,47440,6.13,72472.3,-5.71,-7.15,-6.81,0,*5C
1514696892.92,47441,6.13,72478.0,-5.71,-7.05,-6.89,0,*54
1514696894.14,47442,6.13,72482.0,-5.71,-6.93,-6.89,0,*59
1514696895.37,47443,6.13,72482.0,-5.71,-6.93,-6.77,0,*59
1514696896.59,47444,6.13,72484.3,-5.69,-6.85,-6.73,0,*54
1514696897.79,47445,6.13,72488.3,-5.71,-6.89,-6.77,0,*54
1514696899.01,47446,6.13,72490.3,-5.69,-6.77,-6.73,0,*5B
1514696900.26,47447,6.13,72484.8,-5.69,-6.73,-6.63,0,*5F
1514696901.46,47448,6.06,72486.5,-5.71,-6.77,-6.69,0,*57
1514696902.66,47449,6.06,72482.8,-5.71,-6.81,-6.77,0,*50
1514696903.88,47450,6.06,72478.8,-5.69,-6.73,-6.73,0,*58
1514696905.13,47451,6.06,72482.3,-5.69,-6.73,-6.63,0,*58
1514696906.33,47452,6.13,72484.0,-5.71,-6.77,-6.77,0,*53
1514696907.54,47453,6.13,72476.8,-5.71,-6.77,-6.77,0,*52
1514696908.74,47454,6.06,72474.3,-5.71,-6.81,-6.69,0,*53
1514696909.98,47455,6.06,72472.0,-5.69,-6.73,-6.63,0,*5C
1514696911.25,47456,6.13,72482.8,-5.69,-6.63,-6.63,0,*5E
1514696912.49,47457,6.13,72480.3,-5.69,-6.63,-6.73,0,*5E
1514696913.68,47458,6.13,72476.5,-5.71,-6.69,-6.77,0,*56
1514696914.93,47459,6.13,72478.3,-5.71,-6.63,-6.63,0,*58
1514696916.17,47460,6.13,72476.3,-5.69,-6.63,-6.59,0,*52